星链-30794 (STARLINK-30794 )

导读

STARLINK-30794是美国SpaceX公司星链星座计划中的一颗低轨通信卫星,于2023年11月3日发射入轨。星链项目旨在构建全球覆盖的低轨互联网卫星星座,为全球提供高带宽、低时延的宽带互联网服务,同时该星座也具备潜在的军事应用价值,可服务于美军通信、导航等领域需求,支撑天地一体化网络构建。

Basic Information
目录编号:
58218
目录名称:
STARLINK-30794
国际标识:
2023-170N
轨道中心:
EARTH
卫星名称:
星链-30794
卫星全名:
星链-30794 (STARLINK-30794 )
卫星状态:
在轨 (已飞行1043 天)
发射日期:
2023-11-03 UTC
国别 :
美国 (US)
星等 :
--
This satellite is enrolled in the Space Conjunction Data Service (SCDS) and the current flight risk assessment level is: High Risk
Orbit Information
数据来源 国际轨道数据 AOE轨道数据
星历时间 2026-09-11T12:45:22+0800
12小时前
查看轨道信息
2026-09-06T22:00:00+0800
5天前
查看轨道信息
半长轴 6861.226km 6861.155km
偏心率 0.0001397 0.0001326
轨道倾角 43.002° 43.000°
近地点辐角 269.579° 265.344°
升交点赤经 226.298° 252.364°
平近点角 90.490° 246.710°
近地点 482.13km 482.108km
远地点 484.048km 483.928km
周期 94.268分钟 94.266分钟
每日圈数 15.275669 15.275907
Detailed Information
固有亮度:
5
最大亮度:
0.3
卫星平台:
Starlink v2.0 mini
覆盖范围:
全球
运营商:
太空探索技术公司
运营商所在国:
美国
制造商(研发单位):
太空探索技术公司
制造商所在国:
美国
使用方式:
暂无
Satellite Introduction
星链(Starlink)计划是由太空探索技术公司(SpaceX)提出的一个巨型低轨卫星互联网星座项目,计划在2019年至2024年间在太空搭建由约1.2万颗卫星组成的“星链”网络,其中1584颗将部署在地球上空550千米处的近地轨道,并从2020年开始工作。该卫星仍在工作。
2D Orbit Map
3D Orbit Map
Orbit Altitude Analysis Chart
Orbit Inclination Analysis Chart
Orbit Comprehensive Analysis Chart
View Comprehensive Chart
Conjunction Data List
Event ID Objects TCA Miss Dist (km) Collision Risk Probability Collision Risk Index (CRI) Action
CDM_260913-191505-821806-356621
2026-09-13T
19:15:54+0000
0.245 km
中距离
4.739129E-4 高风险 0.89
CDM_260913-224605-821806-799521
2026-09-13T
22:46:00+0000
0.336 km
远距离
3.58128E-4 高风险 0.86
CDM_260914-021905-821806-356621
2026-09-14T
02:19:35+0000
0.772 km
远距离
3.588178E-5 中风险 0.66
CDM_260912-195705-752705-821822
2026-09-12T
19:57:08+0000
0.909 km
远距离
2.920224E-5 中风险 0.64
CDM_260913-083905-821806-658921
2026-09-13T
08:39:48+0000
1.246 km
极远距离
9.399759E-6 低风险 0.54
CDM_260913-220005-821806-658921
2026-09-13T
22:00:06+0000
1.322 km
极远距离
7.668853E-6 低风险 0.53
CDM_260913-101305-821806-658921
2026-09-13T
10:13:58+0000
1.358 km
极远距离
6.99308E-6 低风险 0.52
CDM_260913-105105-752705-821821
2026-09-13T
10:51:35+0000
1.450 km
极远距离
5.872804E-6 低风险 0.5
CDM_260912-213105-752705-821821
2026-09-12T
21:31:17+0000
1.482 km
极远距离
5.467841E-6 低风险 0.5
CDM_260914-002005-821806-799521
2026-09-14T
00:20:09+0000
1.926 km
极远距离
2.451886E-6 低风险 0.43
Miss Distance Evolution Trend with All Objects
Collision Probability Evolution Trend with All Objects